Tracking 29892 objects as of 21-Nov-2024
HD Live streaming from Space Station
objects crossing your sky now

ATLAS 5 CENTAUR R/B

Track ATLAS 5 CENTAUR R/B now!


NORAD ID: 39167
Int'l Code: 2013-023B
Perigee: 20,565.4 km
Apogee: 21,432.1 km
Inclination: 55.7 °
Period: 751.0 minutes
Semi major axis: 27369 km
RCS: 2.5119 m2 (large)
Launch date: May 15, 2013
Source: United States (US)
Launch site: AIR FORCE EASTERN TEST RANGE (AFETR)

Note: This is a ROCKET BODY
Your satellite tracking list
Your tracking list is empty




NASA's NSSDC Master Catalog

Two Line Element Set (TLE):
1 39167U 13023B   24325.20558138 -.00000060  00000-0  00000-0 0  9990
2 39167  55.7280 308.7313 0158338   8.3836 351.8694  1.91733249 80571
Source of the keplerian elements: AFSPC